Tracking 20942 objects as of 9-Jul-2020
HD Live streaming from Space Station
objects crossing your sky now

FENGYUN 1C DEB

Track FENGYUN 1C DEB now!
10-day predictions


NORAD ID: 30650
Int'l Code: 1999-025APH
Perigee: 831.3 km
Apogee: 948.3 km
Inclination: 99.2 °
Period: 102.6 minutes
Semi major axis: 7260 km
RCS: 0.0287 m2 (small)
Launch date: May 10, 1999
Source: People's Republic of China (PRC)
Launch site: Taiyaun Space Center, China (TSC)

Note: This is SATELLITE DEBRIS
aabbcc
Your satellite tracking list
Your tracking list is empty




NASA's NSSDC Master Catalog

Two Line Element Set (TLE):
1 30650U 99025APH 20191.43503806 +.00000346 +00000-0 +24449-3 0  9990
2 30650 099.1890 164.1356 0080603 292.9474 186.1764 14.03226913684240
Source of the keplerian elements: AFSPC